Simultaneous Nadir Overpasses (SNOs) Predictions

Prediction of SNOs between GOES-16 and LANDSAT-8 Satellite Orbit:

Table of predicted SNOs for the next 14.0 days since TLE Epoch: 11/27/2021
Index Date Time (GOES-16) GOES-16 Lat,Lon LANDSAT-8 Lat,Lon Distance(km) Time Diff (sec)
1 11/27/2021 15:19:03 -0.03, -75.21 0.34, -76.87 189.03 80
2 11/29/2021 15:09:32 -0.03, -75.20 -0.29, -73.92 146.10 80
3 11/30/2021 03:30:56 0.03, -75.18 -0.83, -79.10 446.51 80
4 12/01/2021 14:57:21 -0.03, -75.20 -0.93, -70.96 481.55 80
5 12/02/2021 03:18:45 0.02, -75.17 -0.19, -76.15 111.01 80
6 12/04/2021 03:03:54 0.02, -75.17 0.45, -73.20 224.63 80
7 12/04/2021 15:25:08 -0.02, -75.19 0.68, -78.35 359.82 80
8 12/06/2021 15:12:57 -0.01, -75.18 0.03, -75.39 23.80 80
9 12/08/2021 15:03:26 -0.00, -75.19 -0.56, -72.43 312.93 80
10 12/09/2021 03:24:50 -0.00, -75.17 -0.50, -77.63 279.05 80
